SCP
0 0 0 0 0 0 0 0 0 0 0 0 0 0 0 0 0 1 1 1 1 1 0 0 0 0 0 0 0 0 0 0 0 0 0 0 0 0 0 0 0 0 0 0
0 0 0 0 0 0 0 0 0 0 0 0 0 0 0 0 0 1 1 1 1 1 0 0 0 0 0 0 0 0 0 0 0 0 0 0 0 0 0 0 0 0 0 0
0 0 0 0 0 0 0 0 0 0 0 0 0 0 0 0 0 0 1 1 1 1 0 0 0 0 0 0 0 0 0 0 0 0 0 0 0 0 0 0 0 0 0 0
0 0 0 0 0 0 0 0 0 0 0 0 0 0 0 0 0 0 0 1 1 1 0 1 1 0 0 0 0 0 0 0 0 0 0 0 0 0 0 0 0 0 0 0
0 0 0 0 0 0 0 0 0 0 0 0 0 0 0 0 0 0 0 1 1 1 0 0 0 0 0 0 0 0 0 0 0 0 0 0 0 0 0 0 0 0 0 0
0 0 0 0 0 0 0 0 0 0 0 0 0 0 0 0 0 0 0 0 1 0 0 0 0 0 0 0 0 0 0 0 0 0 0 0 0 0 0 0 0 0 0 0
0 0 0 0 0 0 0 0 0 0 0 0 0 0 0 0 0 0 0 0 0 0 0 0 0 0 0 0 0 0 0 0 0 0 0 0 0 0 0 0 0 0 0 0
0 0 0 0 0 0 0 0 0 0 0 0 0 0 0 0 0 0 0 0 0 0 0 0 0 0 0 0 0 0 0 0 0 0 0 0 0 0 0 0 0 0 0 0
0 0 0 0 0 0 0 0 0 0 0 0 0 0 0 0 0 0 0 0 0 0 0 0 0 0 0 0 0 0 0 0 0 0 0 0 0 0 0 0 0 0 0 0
0 0 0 0 0 0 0 0 0 0 0 0 0 0 0 0 0 0 0 0 0 0 0 0 0 0 0 0 0 0 0 0 0 0 0 0 0 0 0 0 0 0 0 0
0 0 0 0 0 0 0 0 0 0 0 0 0 0 0 0 0 0 0 0 0 0 0 0 0 0 0 0 0 0 0 0 0 0 0 0 0 0 0 0 0 0 0 0
0 0 0 0 0 0 0 0 0 0 0 0 0 0 0 0 0 0 0 0 0 0 0 0 0 0 0 0 0 0 0 0 0 0 0 0 0 0 0 0 0 0 0 0
0 0 0 0 0 0 0 0 0 0 0 0 0 0 0 0 0 0 0 0 0 0 1 1 1 0 0 0 0 0 0 0 0 0 0 0 0 0 0 0 0 0 0 0
0 0 0 0 0 0 0 0 0 0 0 0 0 0 0 0 0 0 0 0 0 0 0 1 1 1 0 0 0 0 1 0 0 0 0 0 0 0 0 0 0 0 0 0
0 0 0 0 0 0 0 0 0 0 0 0 0 0 0 0 0 0 0 0 0 0 0 0 1 0 0 0 0 0 0 0 0 0 0 0 0 0 0 0 0 0 0 0
0 0 0 0 0 0 0 0 0 0 0 0 0 0 0 0 0 0 0 0 0 0 0 0 0 0 0 0 0 0 0 0 0 0 0 0 0 0 0 0 0 0 0 0
0 0 0 0 0 0 0 0 0 0 0 0 0 0 0 0 0 0 0 0 0 0 0 0 0 0 0 0 0 0 0 0 0 0 0 0 0 0 0 0 0 0 0 0
0 0 0 0 0 0 0 0 0 0 0 0 0 0 0 0 0 0 0 0 0 0 0 0 0 0 0 0 0 0 0 0 0 0 0 0 0 0 0 0 0 0 0 0
0 0 0 0 0 0 0 0 0 0 0 0 0 0 0 0 0 0 0 0 0 0 0 0 0 0 0 0 0 0 0 0 0 0 0 0 0 0 0 0 0 0 0 0
0 0 0 0 0 0 0 0 0 0 0 0 0 0 0 0 0 0 0 0 0 0 0 0 0 0 0 0 0 0 0 0 0 0 0 0 0 0 0 0 0 0 0 0
0 0 0 0 0 0 0 0 0 0 0 0 0 0 0 0 0 0 0 0 0 0 0 0 0 0 0 0 0 0 0 0 0 0 0 0 0 0 0 0 0 0 0 0
0 0 0 0 0 0 0 0 0 0 0 0 0 0 0 0 0 0 0 0 0 0 0 0 0 0 0 0 0 0 0 0 0 0 0 0 0 0 0 0 0 0 0 0
0 0 0 0 0 0 0 0 0 0 0 0 0 0 0 0 0 0 0 0 0 0 0 0 0 0 0 0 0 0 0 0 0 0 0 0 0 0 0 0 0 0 0 0
0 0 0 0 0 0 0 0 0 0 0 0 0 0 0 0 0 0 0 0 0 0 0 0 0 0 0 0 0 0 0 0 0 0 0 0 0 0 0 0 0 0 0 0
0 0 0 0 0 0 0 0 0 0 0 0 0 0 0 0 0 0 0 0 0 0 0 0 0 0 0 0 0 0 0 0 0 0 0 0 0 0 0 0 0 0 0 0
0 0 0 0 0 0 0 0 0 0 0 0 0 0 0 0 0 0 0 0 0 0 0 0 0 0 0 0 0 0 0 0 0 0 0 0 0 0 0 0 0 0 0 0
0 0 0 0 0 0 0 0 0 0 0 0 0 0 0 0 0 0 0 0 0 0 0 0 0 0 0 0 0 0 0 0 0 0 0 0 0 0 0 0 0 0 0 0
Wind_Speed
4 2 4 6 8 10 12 10 8 6 6 6 6 8 9 10 11 12 12 12 12 11 10 10 9 8 7 7 6 6 5 4 3 3 2 1 1 1 1 2 2 2 2 3
6 5 6 7 8 10 11 10 10 9 8 5 3 6 9 11 12 13 13 12 12 12 11 11 10 9 8 7 7 6 5 4 3 3 3 2 1 1 2 1 2 2 2 3
6 5 5 8 9 10 10 10 10 10 7 5 7 9 11 12 13 13 13 13 12 12 11 11 11 10 9 8 7 6 5 5 4 3 3 2 2 2 1 1 2 2 2 3
5 5 8 2 1 5 8 9 10 8 5 7 7 6 7 9 12 13 12 12 12 11 11 10 10 9 9 8 7 6 5 5 4 3 3 2 2 1 0 0 1 1 2 2
6 7 7 4 4 5 7 7 8 9 7 6 6 7 6 8 9 10 11 11 11 11 11 10 10 9 9 8 7 6 5 5 4 4 3 2 2 1 1 0 0 1 1 1
7 7 6 2 3 3 5 6 4 7 9 9 10 8 7 10 10 10 10 9 9 10 10 10 9 9 9 8 7 7 6 5 4 4 3 3 2 1 0 0 1 1 1 2
9 9 6 1 4 5 7 2 2 6 8 11 11 5 5 10 10 10 10 10 10 10 9 9 9 9 9 8 7 6 6 5 5 4 3 3 2 1 1 1 1 2 1 2
9 9 7 5 7 6 2 2 1 3 6 9 7 5 8 10 10 11 11 11 11 10 9 8 9 9 8 7 6 6 6 5 5 4 3 3 2 2 1 1 2 2 2 2
6 4 2 3 4 2 3 2 1 2 5 7 8 7 8 10 10 10 11 10 10 10 9 8 8 8 8 7 6 7 6 5 5 4 3 3 3 2 2 2 2 2 2 3
5 5 3 3 4 5 4 4 3 3 4 7 8 9 9 9 10 10 10 10 9 10 10 8 7 7 6 7 7 7 6 5 5 4 3 3 2 2 2 2 3 3 3 3
6 4 3 4 5 4 3 3 2 3 5 7 8 9 10 9 9 9 9 9 9 9 9 9 8 7 6 7 7 7 6 5 4 3 3 2 2 2 3 2 2 4 4 4
6 4 4 2 1 2 3 3 3 5 6 6 7 9 9 9 9 9 9 9 9 9 9 9 8 7 7 6 7 7 5 5 3 3 3 2 2 2 1 3 2 3 5 6
5 2 3 2 1 1 2 2 3 5 6 7 7 8 9 9 9 9 9 10 10 9 9 8 8 7 7 7 7 6 5 4 3 3 3 3 3 3 3 3 5 5 6 6
4 3 3 3 2 2 2 3 3 4 5 6 6 7 8 9 9 9 9 9 9 8 8 8 8 7 7 7 7 6 5 4 3 3 3 3 3 4 4 4 4 3 4 5
5 6 5 3 2 2 3 4 5 5 6 6 6 7 8 9 9 9 8 8 8 8 8 8 8 7 7 7 7 6 5 4 3 3 3 3 3 4 4 5 5 5 4 3
5 5 5 5 5 4 5 5 6 6 6 6 6 7 7 7 7 7 7 8 9 9 8 8 8 7 7 7 6 5 4 3 4 3 4 4 4 4 4 5 5 5 5 4
5 5 6 6 6 6 6 6 5 5 6 6 7 7 7 7 7 7 7 8 8 7 8 8 7 7 7 7 6 4 4 4 6 5 4 4 4 5 5 5 5 5 5 4
6 6 6 6 6 7 6 6 5 5 5 5 5 6 7 7 7 7 7 7 7 6 7 7 7 7 7 7 6 4 4 4 4 4 4 4 4 5 5 5 6 7 6 5
5 5 5 5 6 6 6 5 5 5 5 5 6 6 6 6 6 6 6 7 8 8 7 6 7 8 7 7 6 5 5 5 4 4 4 4 5 5 5 6 6 7 7 6
4 4 5 5 5 5 5 5 5 5 5 6 6 6 6 6 6 6 6 6 5 4 5 6 7 7 7 7 7 5 5 5 5 5 5 5 6 6 6 6 7 7 7 7
2 2 3 3 3 4 4 5 5 5 5 6 6 6 6 5 5 5 5 5 5 4 5 6 6 6 6 5 7 6 6 6 6 6 6 6 6 6 7 7 7 8 8 8
1 2 2 3 3 3 3 4 4 5 5 5 5 5 5 5 5 5 5 4 3 4 5 5 5 5 5 5 6 6 6 7 6 6 6 6 7 7 7 8 8 8 8 8
1 1 2 2 3 3 3 3 3 4 4 5 5 5 5 4 4 4 4 4 4 5 5 4 4 5 6 6 5 6 7 7 7 7 7 7 7 7 8 8 8 8 8 8
1 1 2 2 2 3 3 2 2 2 2 2 3 3 3 3 2 3 2 3 3 4 4 4 6 7 8 6 6 6 6 7 6 6 6 7 7 7 7 8 8 8 9 10
2 2 2 2 2 2 2 2 2 2 2 2 2 2 2 2 2 2 2 2 3 4 4 4 6 7 7 6 6 6 6 6 6 6 6 6 7 7 8 8 8 9 9 9
2 2 2 2 1 1 1 1 1 1 1 1 1 1 1 1 1 2 2 2 3 3 3 2 4 5 5 5 5 6 6 6 6 6 7 7 8 8 8 8 11 9 9 9
2 2 2 2 1 1 1 1 1 1 1 1 1 1 1 1 1 1 2 2 2 2 2 2 3 3 4 4 5 5 5 5 5 5 6 6 7 7 8 10 8 8 8 9
Wind_Direction
248 228 207 219 212 207 222 239 249 242 237 232 207 194 179 172 171 170 171 171 171 170 166 166 166 165 162 164 164 163 162 161 156 148 143 145 125 99 51 14 355 3 1 4
222 209 218 229 230 221 226 238 242 245 250 248 208 187 178 176 174 176 176 176 175 172 168 170 168 166 165 168 168 166 162 154 145 152 139 135 130 98 72 44 14 16 12 16
225 195 221 238 233 223 218 221 227 235 238 194 187 185 185 182 181 181 179 177 176 175 174 174 171 170 169 168 165 168 160 149 154 152 143 149 142 113 96 73 34 9 12 14
237 214 241 259 116 235 229 232 230 241 233 203 195 185 187 186 183 181 178 176 176 176 173 173 169 169 166 164 167 168 159 153 150 151 146 147 146 128 147 59 43 352 2 7
229 242 256 240 204 206 218 235 229 227 215 192 162 160 178 184 188 183 176 174 172 173 169 168 167 166 165 167 167 166 161 160 155 153 150 149 152 172 221 273 357 310 355 348
220 238 248 247 144 195 230 237 212 211 200 181 174 196 185 171 174 172 167 165 163 164 163 164 164 164 168 168 168 168 164 164 154 154 157 162 164 181 195 244 267 280 301 305
228 240 253 245 135 180 220 246 145 198 193 185 196 210 136 152 160 160 158 157 157 158 160 161 161 164 168 167 169 162 158 156 152 158 166 166 164 179 198 230 264 281 292 302
224 235 241 143 167 207 276 25 156 197 193 193 190 136 136 148 152 153 153 154 157 157 154 155 161 166 164 163 159 152 152 155 158 162 166 167 171 190 212 229 246 262 276 290
227 239 33 168 220 290 322 288 254 205 186 181 172 161 152 153 152 153 153 153 156 154 150 153 162 169 163 158 158 155 156 160 164 166 168 179 190 200 218 234 258 273 279 284
235 246 248 243 255 257 262 265 261 227 190 177 173 164 159 157 154 153 153 153 156 156 155 154 159 165 159 155 160 162 165 169 170 177 180 184 206 228 239 249 259 271 280 286
241 252 255 241 241 250 255 249 221 190 184 180 169 165 163 160 157 153 151 153 157 160 158 156 156 159 157 161 166 170 172 177 179 184 192 204 207 245 258 262 294 284 287 292
239 236 243 251 255 251 233 219 196 173 166 170 169 164 161 159 156 154 153 154 158 160 158 156 156 157 157 164 174 177 178 182 185 188 194 211 220 214 225 256 268 265 280 289
276 300 284 303 280 243 222 203 185 176 164 160 163 161 159 155 155 155 156 160 163 162 161 157 158 160 161 168 179 184 183 183 188 200 203 218 232 244 243 222 220 232 245 260
234 232 243 242 251 233 187 164 159 158 154 154 154 157 156 155 156 160 164 165 165 163 163 162 163 166 167 172 180 187 187 183 194 204 219 230 239 248 256 264 262 252 230 229
231 238 247 251 230 196 171 162 159 156 154 153 156 159 162 164 166 167 164 162 165 170 171 171 173 172 173 179 185 190 191 191 200 214 227 237 245 252 259 265 269 273 273 244
232 228 222 217 213 201 189 183 178 173 167 164 166 168 169 168 163 161 164 170 176 181 181 183 184 179 179 184 186 192 195 191 214 222 228 237 246 254 260 264 268 271 273 279
216 220 217 213 209 205 202 199 191 184 177 174 173 168 164 164 166 171 178 185 190 190 188 191 189 181 183 188 191 195 197 191 208 230 237 245 252 259 263 266 269 273 275 284
238 241 233 221 208 201 199 199 196 191 187 180 171 169 171 177 181 182 183 183 187 193 197 196 188 184 187 192 194 198 202 207 215 232 241 249 260 263 265 268 271 274 277 268
238 239 236 230 221 209 200 195 191 188 179 174 177 181 184 188 185 181 180 184 192 198 197 190 179 192 192 191 192 201 211 217 224 233 243 245 252 259 264 268 271 274 276 278
231 233 228 223 214 207 200 194 187 185 182 181 182 183 189 192 187 185 188 197 204 205 194 186 190 198 196 191 194 208 215 223 232 239 246 251 254 259 263 267 270 272 273 275
205 205 202 200 198 195 192 185 179 180 180 182 188 193 196 194 190 189 193 205 207 202 195 188 201 201 200 191 198 215 220 228 236 242 247 251 257 261 264 267 270 271 274 275
181 174 174 177 175 172 172 175 175 177 181 186 192 195 195 196 196 201 207 217 204 186 196 202 208 198 197 200 212 219 226 233 239 244 249 254 258 263 266 269 270 271 273 275
175 165 158 160 159 150 146 156 163 169 177 184 192 195 197 200 201 203 210 209 203 194 210 213 203 189 200 217 221 223 230 236 241 246 250 255 259 263 266 267 269 271 273 275
160 150 145 140 139 137 135 125 131 149 160 168 185 190 189 190 206 223 232 194 194 197 220 204 195 201 214 227 227 230 236 241 244 248 253 257 261 264 266 268 270 271 272 274
178 158 145 144 145 143 140 129 130 128 135 145 152 170 190 203 213 216 225 209 195 210 221 204 205 213 225 233 234 238 241 244 247 251 251 255 260 264 267 269 271 273 274 273
175 166 160 165 152 143 146 145 148 145 147 144 145 156 175 183 197 207 211 209 207 219 229 220 214 222 234 240 243 247 249 247 245 247 253 260 263 266 269 272 275 275 275 275
163 156 151 149 145 152 156 165 176 183 189 193 201 204 201 198 200 209 220 227 224 226 235 242 243 245 249 248 248 249 251 252 253 258 262 264 267 269 271 274 275 276 276 276